Jamestown, KY

12:53 AM CDT on July 06, 2015 (GMT -0500)
LazyDaze | | Change Station
CLOSE
Current Station
Personal Weather Station
Location: Jamestown, KY
Elevation: 978 ft
Nearby Weather Stations

Elev 978 ft 36.94 °N, 85.20 °W | Updated 24 seconds ago

Fog
Fog
67.8 °F
Feels Like 67.8 °F
N
0.0
Wind Variable Wind from SSE
Gusts 0.0 mph

Today
High -- | Low -- °F
--% Chance of Precip.
Yesterday
High -- | Low -- °F
Precip. -- in
5:26 AM 8:03 PM
Waning Gibbous, 78% visible
Pressure 30.10 in
Visibility 0.2 miles
Clouds Overcast 200 ft
Dew Point 68 °F
Humidity 99%
Rainfall 0.00 in
Snow Depth Not available.
UV 0.0 out of 12
Pollen 1.00 out of 12
Air Quality Not available.
Flu Activity Not available.
METAR KSME 060535Z AUTO 00000KT M1/4SM FG OVC002 19/19 A3010 RMK AO2

More Conditions Fewer Conditions

Pressure 30.10 in
Visibility 0.2 miles
Clouds Overcast 200 ft
Dew Point 68 °F
Humidity 99%
Rainfall 0.00 in
Snow Depth Not available.
UV 0.0 out of 12
Pollen 1.00 out of 12
Air Quality Not available.
Flu Activity Not available.
METAR KSME 060535Z AUTO 00000KT M1/4SM FG OVC002 19/19 A3010 RMK AO2

More Conditions Fewer Conditions

10-Day Weather Forecast

×

Almanac

Astronomy

Jul. 06, 2015 Rise Set
Actual Time
Civil Twilight
Nautical Twilight
Astronomical Twilight
Moon
Length of Visible Light
Length of Day
Tomorrow will be .
, % of the Moon is Illuminated

Today's Extremes

State Highs State Lows

Community

WunderPhotos

Upload Photos

1,835,491 photos uploaded!

WunderBlogs® & News

Nearby

Air Quality

  Air Quality AQ Index Pollutant
Not available.

Snow Depth

Station Depth Elevation

Earthquake Activity

City Distance Mag. Time & Date
Minimum magnitude displayed is 2.5.

Coastal Water Temperatures

Place Temperature

Stations

Nearby Weather Stations

Station Location Temp. Windchill Dew Point Humidity Wind Precip. Elev Updated Type